Precipitable_Water
0.19 0.21 0.22 0.22 0.22 0.26 0.28 0.30 0.29 0.30 0.29 0.29 0.27 0.25 0.27 0.29 0.33 0.35 0.38 0.36 0.38 0.40 0.45 0.48 0.49 0.62 0.63
0.21 0.23 0.23 0.24 0.24 0.25 0.27 0.29 0.29 0.27 0.27 0.26 0.24 0.25 0.31 0.29 0.28 0.26 0.28 0.33 0.37 0.45 0.48 0.51 0.53 0.56 0.54
0.22 0.24 0.24 0.25 0.24 0.26 0.27 0.25 0.24 0.23 0.21 0.23 0.26 0.27 0.27 0.27 0.29 0.31 0.30 0.36 0.44 0.44 0.44 0.50 0.48 0.45 0.49
0.24 0.25 0.24 0.28 0.30 0.26 0.21 0.21 0.19 0.22 0.23 0.26 0.27 0.22 0.25 0.27 0.27 0.28 0.32 0.36 0.37 0.38 0.41 0.45 0.45 0.44 0.45
0.25 0.23 0.24 0.22 0.22 0.23 0.19 0.18 0.20 0.22 0.24 0.19 0.19 0.21 0.22 0.26 0.29 0.29 0.30 0.34 0.38 0.40 0.45 0.44 0.44 0.40 0.49
0.23 0.20 0.19 0.20 0.22 0.22 0.20 0.19 0.17 0.23 0.18 0.17 0.23 0.22 0.26 0.29 0.34 0.34 0.39 0.35 0.34 0.36 0.40 0.42 0.41 0.41 0.39
0.20 0.20 0.21 0.25 0.24 0.22 0.22 0.21 0.18 0.19 0.22 0.20 0.26 0.27 0.32 0.31 0.33 0.36 0.38 0.37 0.34 0.35 0.39 0.39 0.39 0.39 0.40
0.23 0.25 0.26 0.25 0.24 0.22 0.21 0.21 0.24 0.25 0.27 0.23 0.29 0.28 0.31 0.34 0.36 0.36 0.36 0.37 0.39 0.40 0.39 0.43 0.44 0.43 0.45
0.28 0.26 0.23 0.22 0.24 0.24 0.22 0.22 0.21 0.23 0.27 0.26 0.28 0.28 0.30 0.32 0.34 0.36 0.40 0.39 0.36 0.35 0.37 0.40 0.41 0.40 0.40
0.20 0.19 0.22 0.24 0.27 0.28 0.28 0.24 0.24 0.22 0.27 0.25 0.26 0.28 0.26 0.32 0.35 0.35 0.38 0.39 0.38 0.40 0.40 0.41 0.41 0.39 0.37
0.20 0.23 0.27 0.29 0.30 0.30 0.31 0.29 0.26 0.25 0.29 0.30 0.28 0.29 0.29 0.29 0.33 0.37 0.36 0.39 0.42 0.45 0.48 0.47 0.46 0.43 0.37
0.25 0.27 0.27 0.28 0.29 0.31 0.32 0.33 0.34 0.31 0.33 0.34 0.30 0.30 0.29 0.29 0.30 0.33 0.37 0.42 0.45 0.49 0.54 0.58 0.59 0.53 0.48
0.26 0.26 0.29 0.30 0.32 0.32 0.33 0.35 0.35 0.36 0.37 0.37 0.34 0.33 0.31 0.29 0.31 0.33 0.35 0.41 0.48 0.50 0.53 0.58 0.55 0.55 0.51
0.27 0.29 0.31 0.31 0.31 0.32 0.32 0.32 0.32 0.33 0.36 0.36 0.35 0.34 0.31 0.31 0.34 0.35 0.38 0.38 0.46 0.49 0.50 0.52 0.60 0.58 0.58
0.29 0.29 0.30 0.30 0.31 0.32 0.33 0.32 0.31 0.31 0.31 0.34 0.35 0.35 0.34 0.33 0.32 0.36 0.38 0.41 0.46 0.48 0.50 0.50 0.54 0.60 0.61
0.30 0.30 0.30 0.30 0.30 0.32 0.32 0.31 0.30 0.31 0.31 0.32 0.32 0.32 0.33 0.35 0.38 0.36 0.40 0.42 0.47 0.51 0.53 0.50 0.51 0.58 0.64
0.30 0.31 0.31 0.31 0.31 0.31 0.32 0.32 0.31 0.32 0.33 0.34 0.32 0.31 0.29 0.28 0.35 0.44 0.40 0.43 0.47 0.48 0.51 0.51 0.50 0.54 0.59
Wind_Speed
67 64 62 61 60 58 56 54 53 50 50 50 52 52 52 52 51 50 50 53 56 55 54 55 57 59 63
63 61 60 58 57 56 53 50 48 49 50 52 53 51 49 50 50 50 50 49 50 53 53 52 52 53 56
61 59 58 55 55 52 49 48 48 50 52 49 48 48 48 48 48 49 49 48 48 50 50 50 49 49 50
57 55 55 52 49 48 49 48 49 47 47 46 46 47 46 46 46 46 46 47 48 48 49 49 48 46 48
54 54 51 52 50 49 48 48 46 45 42 42 41 39 39 40 39 40 41 42 43 45 47 47 46 46 44
53 54 53 51 47 44 45 44 41 37 38 37 36 35 34 33 33 36 35 38 40 43 45 46 46 45 46
52 49 46 43 44 43 40 38 36 36 35 32 30 28 28 30 31 32 34 35 37 39 42 44 45 45 45
45 43 42 42 39 37 36 34 33 31 28 28 28 29 31 30 32 33 30 29 29 32 37 40 41 42 43
41 39 37 36 34 32 30 30 30 27 28 29 28 29 29 29 26 21 20 22 26 30 34 38 40 41 42
34 33 32 32 32 31 31 30 30 29 29 28 27 26 24 22 16 18 16 17 18 22 28 35 39 40 41
31 32 32 32 32 31 30 30 29 28 29 26 25 23 20 18 15 13 11 8 9 12 18 26 35 40 39
32 32 31 30 28 27 26 25 25 25 25 22 20 19 17 14 11 9 6 4 2 2 4 10 20 31 37
29 26 26 26 25 25 24 23 22 21 19 18 15 12 10 8 7 5 2 1 2 3 4 7 11 17 23
23 24 24 24 24 23 22 21 20 18 17 15 13 9 5 4 3 0 3 5 4 6 8 11 13 15 18
22 23 23 23 22 21 20 20 19 19 19 16 12 6 1 1 4 5 6 8 9 11 12 15 15 16 17
22 22 22 22 20 19 19 19 19 19 20 18 11 8 6 6 7 8 10 11 12 13 15 17 18 19 19
22 22 21 20 20 18 18 18 18 18 18 17 14 10 9 9 10 11 12 13 14 16 17 19 22 21 23
Wind_Direction
305 305 304 302 301 299 298 296 294 292 291 290 288 286 281 277 274 272 269 264 259 256 254 251 249 246 243
306 306 304 304 302 300 298 296 294 293 292 291 290 286 281 278 275 272 269 267 259 254 252 250 248 246 244
306 305 305 305 303 301 299 297 296 295 295 293 290 286 283 279 276 273 269 265 259 253 249 247 246 245 242
306 306 306 305 305 304 301 299 299 298 296 293 291 289 285 282 278 274 269 264 259 253 247 245 243 242 238
307 307 307 305 305 303 301 302 299 298 296 296 294 292 288 285 280 275 269 264 257 251 245 242 240 237 236
308 307 306 305 305 305 304 303 301 300 300 299 298 295 292 289 284 280 271 265 258 250 243 239 237 235 234
308 309 308 308 307 306 305 303 302 303 303 301 302 299 298 295 290 285 278 268 258 248 240 237 235 234 231
309 309 309 310 310 309 308 306 304 304 305 302 305 303 303 298 293 289 280 267 256 244 237 234 231 229 229
311 311 313 313 314 314 312 311 309 306 307 304 306 306 307 306 301 290 282 272 262 249 236 233 231 229 227
316 316 317 316 315 313 312 310 309 306 308 304 305 308 311 313 309 303 292 281 264 246 240 235 231 226 224
320 319 319 318 317 315 313 311 308 306 308 306 305 305 304 311 314 312 307 293 274 254 243 236 228 221 219
322 322 323 324 325 325 323 321 318 312 312 308 304 304 303 307 313 320 313 312 316 288 230 217 206 209 213
327 330 333 333 332 333 333 332 331 328 324 323 315 312 303 307 313 324 333 113 69 68 120 132 161 180 193
337 338 340 341 341 341 342 343 344 346 343 338 331 317 313 322 326 35 110 120 78 94 111 126 135 146 160
343 344 345 347 349 351 354 357 359 359 360 357 356 343 273 72 94 102 111 114 100 103 109 122 124 131 139
346 347 349 351 354 357 360 3 5 7 9 13 21 43 90 121 98 111 118 115 108 104 110 115 120 124 124
347 348 350 352 354 357 360 4 8 12 17 25 39 63 84 101 111 105 122 120 115 110 113 118 121 120 122